Overview Statistics Trail Chart Weather Telemetry Raw packets
 

This is the latest recevied weather packets stored in our database for station/object YO8SHU-10. If no packets are shown the sender has not sent any weather packets the latest 10 day(s).

<< 1 2 3 4 5 6 >>
Time Temp. Humidity Pressure Rain* Wind** Luminosity Snow
1788546656 23.33° C 83% 1020.9 hPa - - - -
1788544856 23.89° C 80% 1020.8 hPa - - - -
1788543056 23.89° C 80% 1020.3 hPa - - - -
1788541256 25.56° C 73% 1020.2 hPa - - - -
1788539456 27.22° C 70% 1020.1 hPa - - - -
1788537655 29.44° C 50% 1019.9 hPa - - - -
1788535855 34.44° C 35% 1019.7 hPa - - - -
1788534055 38.33° C 36% 1019.7 hPa - - - -
1788532255 30° C 50% 1019.8 hPa - - - -
1788530455 32.78° C 42% 1019.9 hPa - - - -
1788528655 33.33° C 70% 1019.8 hPa - - - -
1788526855 32.22° C 68% 1020.1 hPa - - - -
1788525055 30.56° C 53% 1020.4 hPa - - - -
1788523255 32.78° C 56% 1020.7 hPa - - - -
1788521454 31.67° C 69% 1021.1 hPa - - - -
1788519654 32.22° C 67% 1021.6 hPa - - - -
1788517854 30.56° C 65% 1021.8 hPa - - - -
1788516054 30.56° C 77% 1022.3 hPa - - - -
1788514254 29.44° C 59% 1022.3 hPa - - - -
1788512454 28.33° C 73% 1022.8 hPa - - - -
1788510654 27.78° C 85% 1023 hPa - - - -
1788508854 25.56° C 94% 1023.2 hPa - - - -
1788507053 23.89° C 100% 1023.2 hPa - - - -
1788505253 23.33° C 100% 1023.1 hPa - - - -
1788503453 22.22° C 100% 1023 hPa - - - -

* Rain since midnight (hover to see other rain measurements)
** Current wind speed in m/s (hover to see current wind gust speed)